Temperature
14 14 14 14 14 14 14 14 14 14 15 15 15 15 15 15 15 15 16 16 16 16 16 16 16 16 16 16 16 16 16 16 16 16 16 16 16 16
13 14 14 14 14 14 14 14 14 14 14 15 15 15 15 15 15 15 15 16 16 16 16 16 16 16 16 16 16 16 16 16 16 16 16 16 16 16
13 13 13 13 14 14 14 14 14 14 14 14 14 14 14 14 15 15 15 15 15 15 15 16 16 16 16 16 16 16 16 16 16 16 16 16 16 16
14 13 13 14 14 14 14 14 14 14 14 14 14 14 14 14 14 14 14 15 15 15 15 15 15 15 15 15 15 15 15 15 15 15 15 15 15 15
14 14 14 14 14 14 13 13 14 14 14 14 14 14 14 14 14 14 14 14 14 15 15 15 15 15 15 15 15 15 15 15 15 15 15 15 15 15
14 14 14 14 14 14 14 13 13 13 14 14 14 14 14 14 14 14 14 14 14 14 14 14 15 15 15 15 15 15 15 15 15 15 15 15 15 15
14 14 14 14 14 14 14 14 13 13 13 13 13 14 14 14 14 14 14 14 14 14 14 14 14 14 14 14 14 14 14 14 14 14 14 14 14 14
14 14 14 14 14 14 14 14 14 13 13 13 13 13 13 14 14 14 14 14 13 14 14 14 14 14 14 14 14 14 14 14 14 14 14 14 14 14
14 14 14 14 14 14 14 14 14 13 13 13 13 13 13 13 13 13 13 13 14 14 14 14 14 13 13 14 14 14 14 14 14 14 14 14 14 14
14 14 14 14 14 14 14 14 14 13 13 13 13 13 13 13 13 13 13 13 13 13 13 13 13 13 13 13 13 13 13 13 13 13 13 13 13 13
14 14 14 14 14 14 14 13 13 13 13 13 13 13 13 13 13 13 13 13 13 13 13 13 13 13 13 13 13 13 13 13 13 13 13 13 13 13
13 13 13 13 14 14 14 13 13 13 13 13 13 13 13 13 13 13 13 13 13 13 13 13 13 13 12 12 12 12 12 12 12 12 12 13 13 12
13 13 13 13 13 13 13 13 13 13 13 13 13 13 13 13 13 13 13 13 13 13 13 13 13 12 12 12 12 12 12 12 12 12 12 12 12 12
12 12 12 12 12 13 13 13 13 13 13 12 12 12 12 12 13 13 12 12 12 12 12 12 12 12 12 12 12 12 11 11 11 11 11 11 11 11
12 12 12 12 12 12 12 12 13 13 13 12 12 12 12 12 12 12 12 12 12 12 12 12 12 12 12 12 12 12 11 11 11 11 11 11 11 11
11 11 11 11 11 12 12 12 12 12 12 12 12 12 12 12 12 12 12 12 12 12 12 12 12 12 12 12 12 11 11 11 11 11 10 10 10 10
11 11 11 11 11 11 11 11 11 12 12 12 12 12 11 11 11 12 11 11 11 11 11 11 11 11 11 11 11 11 11 10 10 10 10 10 10 9
10 10 10 10 11 11 11 11 11 11 11 11 11 11 11 11 11 11 11 11 11 11 11 11 11 11 11 11 11 10 10 10 10 9 9 9 9 9
10 10 10 10 10 10 10 10 11 11 11 11 11 11 11 11 11 11 11 11 11 10 10 10 10 10 10 10 10 10 10 9 9 9 9 8 8 8
9 10 10 10 10 10 10 10 10 10 10 10 10 10 10 10 10 10 10 10 10 10 10 10 10 10 10 10 10 9 9 9 9 8 8 8 8 8
9 9 9 9 9 9 9 10 10 10 10 10 10 10 10 10 10 10 10 10 9 9 9 9 10 10 9 9 9 9 9 8 8 8 8 7 7 7
9 9 9 9 9 9 9 9 9 9 9 10 10 9 10 10 10 9 9 9 9 9 9 9 9 9 9 8 8 8 8 8 7 7 7 7 7 7
8 8 8 8 8 8 8 9 9 9 9 9 9 9 9 9 9 9 9 9 9 9 9 8 8 8 8 8 8 8 7 7 7 7 7 6 6 6
Wind_Speed
3 3 1 1 1 1 0 0 1 0 1 1 1 1 2 3 5 6 8 9 10 10 10 10 9 9 9 10 10 10 11 12 11 11 11 10 10 9
2 2 2 1 1 1 1 1 1 2 1 1 1 2 2 2 4 4 7 10 11 11 11 11 11 10 9 9 9 10 10 11 11 12 11 11 10 10
2 2 2 1 2 1 1 1 1 1 2 1 0 1 2 1 1 2 5 8 9 12 12 11 11 11 11 10 10 10 10 10 11 11 11 10 10 10
3 2 2 2 2 2 1 1 1 1 2 2 1 0 1 2 2 2 2 5 6 11 13 13 12 12 12 11 10 10 10 11 10 11 10 10 10 9
3 3 3 2 2 2 2 2 2 2 1 2 2 1 1 1 1 2 2 2 4 9 11 12 12 12 12 11 11 10 10 11 11 10 10 10 10 10
3 3 3 2 3 3 3 3 2 2 2 2 2 2 2 2 1 2 1 2 2 4 5 8 10 12 12 12 11 11 11 11 11 11 10 9 9 9
3 3 3 4 3 2 2 2 2 2 2 2 3 2 2 2 2 2 2 2 2 2 3 3 4 5 8 11 12 12 11 11 11 11 10 9 8 8
5 4 4 5 6 6 6 5 4 3 3 2 2 3 3 3 3 3 2 2 2 2 3 3 4 4 5 8 11 13 12 12 11 11 10 9 8 8
5 5 5 4 5 5 7 8 7 8 7 4 3 4 3 3 3 3 3 3 3 3 3 2 3 3 3 7 11 12 12 11 11 10 10 9 8 7
5 5 5 4 4 3 4 5 6 7 9 7 5 5 3 3 3 4 4 3 2 2 4 3 2 2 2 5 10 11 11 11 11 10 10 9 8 7
5 5 4 3 4 4 4 5 5 6 8 8 7 7 6 5 4 2 2 2 2 2 3 3 2 2 1 2 6 10 11 11 11 10 9 9 8 6
5 4 5 5 4 4 4 5 6 5 4 5 6 7 6 7 8 6 5 4 3 3 3 4 3 3 1 1 3 5 6 8 9 9 8 7 6 5
5 4 4 7 7 7 7 6 7 6 5 5 5 5 5 5 5 5 5 5 5 3 4 4 3 3 3 2 1 3 4 4 5 5 6 5 4 4
6 4 4 7 8 9 8 8 10 7 4 4 4 4 5 5 5 5 5 5 5 5 5 4 3 4 4 3 2 2 2 3 4 3 4 4 3 3
6 7 8 10 9 8 10 11 8 5 5 5 5 5 5 5 5 4 3 3 3 3 4 3 4 4 4 4 3 3 2 1 3 3 3 3 2 2
7 8 10 11 9 9 8 8 7 6 6 6 5 5 4 4 4 4 4 4 3 1 2 4 5 5 3 3 4 3 3 3 3 3 3 2 2 2
7 6 6 5 6 7 6 6 6 6 7 6 5 4 4 5 4 4 4 4 4 5 4 2 4 5 4 3 4 4 3 3 3 3 3 2 1 2
8 7 8 7 8 8 8 7 7 7 6 6 6 6 6 6 5 4 4 5 5 5 5 5 4 3 2 2 1 4 4 3 3 3 3 2 2 1
7 8 8 8 8 8 8 8 8 7 7 6 7 6 6 5 5 5 5 5 5 5 5 6 5 5 5 4 1 1 3 4 3 3 2 2 3 2
7 8 8 8 8 7 7 8 7 7 7 6 6 6 6 6 6 7 7 6 6 5 4 5 6 6 7 6 4 1 1 3 4 4 2 1 2 3
7 8 8 8 7 7 7 7 7 7 7 7 7 7 7 7 6 7 7 9 7 6 7 7 6 8 5 5 4 2 1 2 4 4 3 3 2 2
8 8 8 8 7 7 6 6 7 7 8 8 7 7 8 7 8 8 8 8 7 7 6 5 6 6 4 5 5 5 3 2 4 6 4 3 4 4
8 8 7 7 7 6 6 6 7 7 7 8 7 7 8 7 7 8 8 8 7 7 7 6 5 4 4 5 5 5 5 4 3 2 1 1 3 5
Wind_Direction
318 318 308 288 296 326 335 176 164 300 304 219 137 161 147 140 155 171 168 178 178 177 180 182 183 181 181 185 192 197 199 201 201 199 201 202 204 206
290 300 309 298 298 263 253 270 225 189 230 277 192 170 170 155 166 179 175 179 184 183 183 184 185 186 186 189 193 198 202 203 205 207 206 206 208 208
283 262 254 261 284 280 250 255 262 183 204 269 294 159 154 155 152 194 179 180 187 191 190 189 189 192 194 197 200 203 206 206 207 205 205 208 210 211
269 267 256 241 247 265 263 250 254 234 198 222 253 238 192 183 180 211 199 185 180 190 192 193 193 195 194 195 198 201 203 200 202 202 202 205 207 207
244 249 251 236 239 231 225 237 251 254 221 207 235 232 241 213 191 221 220 196 192 185 187 192 193 193 192 192 193 196 195 193 193 194 195 198 201 202
239 229 232 223 238 244 233 234 234 240 243 219 217 221 224 230 192 211 228 217 209 179 174 184 192 194 193 191 191 193 191 190 189 190 191 194 197 201
261 233 221 208 208 220 233 248 256 243 240 220 218 217 216 197 203 205 205 224 220 176 158 172 176 186 191 195 193 192 189 188 189 189 189 191 196 201
286 263 228 214 210 219 225 220 214 226 237 232 232 221 216 201 196 195 190 181 234 203 159 189 174 185 186 185 189 190 189 188 190 190 190 193 200 208
282 280 275 238 208 213 225 232 235 234 227 219 231 237 222 206 190 199 200 193 209 200 158 199 189 183 173 171 176 180 184 185 187 190 194 199 205 212
269 269 270 258 235 225 223 224 231 231 229 226 230 235 227 205 191 196 201 210 236 210 158 179 187 175 150 150 170 174 180 185 189 193 197 201 204 211
268 270 271 263 252 241 243 245 243 238 225 220 215 219 215 213 192 167 192 186 216 220 183 164 172 154 143 155 175 180 181 184 189 193 194 195 199 206
268 257 256 256 272 249 241 245 247 246 228 219 221 227 222 218 207 195 196 194 195 206 195 161 165 142 143 160 154 170 177 184 187 188 187 188 189 192
276 263 249 240 248 258 259 249 242 249 243 224 211 212 209 207 207 207 200 194 194 206 190 162 165 160 154 162 166 172 165 161 167 173 180 177 179 183
278 273 264 254 252 254 254 255 255 252 243 232 216 210 210 208 205 199 199 194 188 189 181 162 165 167 156 154 179 166 155 158 153 155 156 159 163 175
278 278 277 276 269 257 249 252 253 243 229 225 221 217 209 200 188 181 181 170 157 149 160 160 154 155 153 165 171 167 163 177 155 153 152 152 161 155
270 276 276 270 258 255 252 246 237 229 222 223 220 215 199 185 186 182 182 169 158 171 117 121 134 144 154 160 161 173 173 175 165 151 144 146 139 153
280 275 265 262 250 244 240 233 226 225 229 224 219 212 199 192 194 184 178 171 177 184 172 133 108 108 112 139 164 176 169 161 158 147 134 144 160 155
279 268 259 253 249 245 240 233 225 222 226 222 220 212 204 197 190 185 177 176 180 180 174 163 146 122 95 45 61 171 161 154 150 143 134 155 184 141
264 258 255 253 250 246 243 234 227 221 219 223 221 215 205 197 187 186 186 183 184 179 178 168 163 160 173 196 239 33 151 153 149 153 170 170 178 172
253 255 257 255 251 246 245 241 230 220 217 219 221 213 203 196 193 191 190 189 185 175 177 177 178 178 184 181 172 182 53 150 158 165 165 122 111 116
263 262 259 257 256 251 246 241 234 225 216 211 216 216 205 197 197 195 190 187 184 178 184 191 186 165 137 122 128 142 83 58 131 156 154 138 157 184
266 264 262 260 259 255 250 242 239 235 222 216 214 215 209 200 197 194 190 188 189 186 180 174 160 152 152 168 171 162 153 126 80 89 92 147 167 183
265 266 265 262 259 255 244 241 245 243 232 221 215 212 206 203 196 193 189 184 180 174 163 161 163 164 171 170 165 158 159 161 155 129 8 291 177 180
Height
1506 1506 1506 1506 1507 1507 1508 1508 1509 1509 1510 1510 1510 1511 1511 1512 1513 1514 1516 1517 1519 1521 1523 1525 1527 1530 1532 1534 1536 1538 1540 1543 1545 1547 1549 1551 1552 1554
1506 1505 1505 1505 1506 1506 1506 1507 1508 1509 1508 1509 1510 1510 1510 1511 1512 1513 1514 1515 1517 1519 1521 1523 1525 1527 1529 1531 1534 1536 1538 1539 1541 1544 1545 1547 1549 1551
1505 1504 1504 1504 1504 1504 1505 1505 1506 1507 1507 1508 1508 1509 1509 1510 1510 1511 1512 1513 1515 1517 1519 1521 1523 1525 1526 1528 1530 1532 1534 1536 1538 1540 1542 1544 1546 1547
1504 1504 1503 1503 1503 1503 1503 1504 1504 1505 1506 1506 1507 1507 1508 1508 1509 1509 1510 1511 1513 1514 1516 1518 1520 1521 1523 1525 1527 1528 1530 1532 1534 1536 1538 1540 1542 1543
1503 1503 1502 1502 1502 1502 1502 1502 1502 1503 1503 1504 1504 1505 1506 1506 1507 1508 1508 1509 1510 1512 1513 1515 1516 1518 1520 1522 1523 1525 1526 1528 1530 1532 1534 1536 1538 1539
1502 1501 1501 1500 1500 1500 1500 1500 1500 1500 1501 1502 1502 1503 1504 1504 1505 1505 1506 1507 1508 1509 1510 1512 1513 1515 1516 1518 1519 1521 1522 1524 1526 1528 1530 1532 1534 1535
1500 1500 1499 1499 1498 1498 1498 1498 1498 1498 1499 1499 1499 1500 1501 1501 1502 1503 1504 1505 1506 1506 1507 1509 1510 1511 1513 1514 1516 1517 1519 1521 1522 1525 1527 1528 1530 1531
1497 1497 1496 1496 1496 1495 1495 1495 1496 1496 1496 1496 1497 1497 1498 1499 1500 1500 1501 1502 1503 1504 1505 1506 1507 1508 1509 1511 1512 1514 1516 1517 1519 1521 1523 1524 1525 1527
1494 1494 1494 1493 1493 1492 1492 1492 1492 1492 1493 1493 1493 1494 1495 1495 1496 1497 1498 1499 1499 1501 1502 1502 1504 1505 1506 1507 1509 1511 1512 1514 1515 1517 1518 1520 1521 1523
1491 1491 1490 1490 1489 1489 1488 1488 1488 1488 1489 1489 1489 1490 1491 1492 1493 1494 1495 1496 1497 1498 1499 1500 1501 1502 1503 1504 1506 1507 1509 1510 1511 1513 1514 1515 1517 1518
1487 1487 1486 1486 1485 1485 1485 1484 1484 1484 1484 1485 1485 1486 1487 1487 1488 1490 1491 1492 1493 1494 1495 1496 1497 1499 1500 1501 1502 1504 1505 1506 1507 1509 1510 1511 1512 1514
1482 1482 1482 1481 1481 1480 1480 1479 1479 1479 1480 1480 1480 1481 1481 1482 1483 1485 1486 1487 1488 1490 1491 1493 1493 1495 1496 1498 1499 1500 1501 1502 1504 1505 1506 1507 1508 1509
1478 1477 1476 1476 1475 1475 1475 1474 1474 1475 1475 1475 1475 1476 1476 1477 1478 1479 1481 1482 1484 1485 1487 1488 1489 1491 1492 1494 1495 1496 1498 1499 1500 1501 1502 1503 1504 1505
1473 1472 1471 1471 1470 1469 1469 1468 1469 1470 1470 1470 1470 1470 1471 1472 1473 1474 1476 1477 1479 1481 1482 1484 1485 1486 1488 1489 1491 1493 1494 1495 1496 1497 1498 1499 1500 1501
1467 1466 1466 1465 1464 1463 1463 1463 1463 1463 1463 1464 1464 1465 1466 1467 1468 1470 1471 1472 1474 1476 1477 1479 1481 1482 1484 1485 1486 1488 1490 1491 1492 1493 1494 1495 1496 1497
1461 1460 1459 1458 1457 1456 1456 1456 1456 1457 1457 1458 1458 1459 1461 1462 1463 1464 1465 1467 1468 1470 1472 1474 1476 1477 1479 1481 1482 1484 1485 1486 1488 1489 1490 1491 1492 1493
1455 1453 1452 1451 1449 1449 1449 1449 1449 1450 1450 1451 1452 1453 1454 1455 1456 1458 1459 1461 1462 1464 1466 1468 1471 1473 1475 1476 1477 1479 1480 1482 1483 1484 1485 1486 1488 1488
1449 1446 1445 1444 1443 1442 1442 1441 1442 1443 1443 1444 1445 1446 1447 1448 1450 1451 1453 1455 1456 1458 1460 1463 1465 1467 1470 1471 1473 1474 1475 1477 1478 1480 1481 1482 1483 1484
1442 1439 1438 1437 1436 1435 1435 1434 1434 1435 1436 1437 1438 1439 1440 1442 1443 1444 1446 1448 1450 1452 1455 1457 1459 1462 1464 1465 1467 1470 1471 1472 1474 1475 1476 1478 1479 1480
1434 1432 1430 1429 1428 1427 1427 1427 1427 1427 1428 1429 1430 1432 1433 1435 1436 1437 1439 1442 1444 1446 1449 1451 1453 1455 1458 1460 1462 1465 1466 1468 1469 1471 1472 1473 1474 1476
1427 1425 1423 1422 1421 1420 1419 1419 1419 1419 1420 1421 1422 1424 1425 1427 1429 1430 1432 1435 1438 1440 1442 1444 1447 1451 1453 1456 1458 1459 1461 1463 1465 1466 1468 1469 1470 1470
1419 1417 1415 1414 1413 1412 1412 1411 1411 1411 1412 1413 1414 1415 1417 1419 1421 1423 1425 1428 1431 1433 1436 1439 1442 1445 1447 1450 1452 1454 1456 1459 1460 1462 1464 1465 1465 1466
1411 1410 1408 1406 1405 1404 1403 1403 1403 1403 1403 1404 1405 1407 1408 1410 1413 1415 1418 1421 1424 1427 1430 1433 1436 1439 1442 1444 1447 1449 1452 1454 1456 1457 1459 1461 1462 1463